| time (UTC) | temp F | wind direction | speed MPH | gust MPH | rain 1hr in | rain 24hr in | rain mn in | humidity % | barometer mb |
| 20260507223003 | 63 | 262 | 3.0 | 10.0 | 0.00 | 0.00 | 0.00 | 23 | 935.3 |
| 20260507221501 | 63 | 290 | 4.0 | 14.0 | 0.00 | 0.00 | 0.00 | 23 | 935.5 |
| 20260507220058 | 64 | 273 | 6.0 | 12.0 | 0.00 | 0.00 | 0.00 | 24 | 935.6 |
| 20260507214601 | 63 | 281 | 7.0 | 16.0 | 0.00 | 0.00 | 0.00 | 21 | 935.7 |
| 20260507213056 | 64 | 234 | 3.0 | 10.0 | 0.00 | 0.00 | 0.00 | 20 | 935.9 |
| 20260507211554 | 64 | 278 | 3.0 | 13.0 | 0.00 | 0.00 | 0.00 | 22 | 936.0 |
| 20260507210053 | 63 | 292 | 3.0 | 11.0 | 0.00 | 0.00 | 0.00 | 21 | 936.3 |
| 20260507204556 | 63 | 204 | 3.0 | 9.0 | 0.00 | 0.00 | 0.00 | 21 | 936.4 |
| 20260507203049 | 62 | 278 | 4.0 | 10.0 | 0.00 | 0.00 | 0.00 | 21 | 936.6 |
| 20260507201553 | 62 | 176 | 2.0 | 8.0 | 0.00 | 0.00 | 0.00 | 20 | 936.8 |
| 20260507200043 | 61 | 284 | 3.0 | 10.0 | 0.00 | 0.00 | 0.00 | 21 | 936.9 |
| 20260507194545 | 60 | 211 | 2.0 | 9.0 | 0.00 | 0.00 | 0.00 | 22 | 937.0 |
| 20260507193042 | 61 | 208 | 2.0 | 7.0 | 0.00 | 0.00 | 0.00 | 22 | 937.0 |
| 20260507191539 | 59 | 248 | 4.0 | 8.0 | 0.00 | 0.00 | 0.00 | 21 | 937.2 |
| 20260507190037 | 59 | 279 | 5.0 | 11.0 | 0.00 | 0.00 | 0.00 | 22 | 937.2 |
| 20260507184535 | 59 | 289 | 2.0 | 9.0 | 0.00 | 0.00 | 0.00 | 22 | 937.3 |
| 20260507183033 | 58 | 291 | 3.0 | 10.0 | 0.00 | 0.00 | 0.00 | 22 | 937.4 |
| 20260507181531 | 58 | 272 | 5.0 | 9.0 | 0.00 | 0.00 | 0.00 | 23 | 937.6 |
| 20260507180031 | 58 | 234 | 2.0 | 5.0 | 0.00 | 0.00 | 0.00 | 23 | 937.7 |
| 20260507174538 | 56 | 240 | 2.0 | 7.0 | 0.00 | 0.00 | 0.00 | 23 | 937.8 |
| 20260507173030 | 56 | 252 | 2.0 | 5.0 | 0.00 | 0.00 | 0.00 | 24 | 937.9 |
| 20260507171531 | 56 | 304 | 3.0 | 8.0 | 0.00 | 0.00 | 0.00 | 24 | 938.0 |
| 20260507170038 | 56 | 306 | 0.0 | 4.0 | 0.00 | 0.00 | 0.00 | 24 | 938.1 |
| 20260507164522 | 55 | 323 | 2.0 | 4.0 | 0.00 | 0.00 | 0.00 | 25 | 938.1 |
| 20260507163020 | 54 | 323 | 0.0 | 4.0 | 0.00 | 0.00 | 0.00 | 25 | 938.2 |
| 20260507161519 | 55 | 19 | 1.0 | 3.0 | 0.00 | 0.00 | 0.00 | 25 | 938.2 |
| 20260507160017 | 53 | 22 | 0.0 | 4.0 | 0.00 | 0.00 | 0.00 | 27 | 938.3 |
| 20260507154512 | 52 | 28 | 1.0 | 3.0 | 0.00 | 0.00 | 0.00 | 28 | 938.3 |
| 20260507153009 | 51 | 43 | 1.0 | 3.0 | 0.00 | 0.00 | 0.00 | 31 | 938.3 |
| 20260507151505 | 49 | 43 | 0.0 | 3.0 | 0.00 | 0.00 | 0.00 | 34 | 938.4 |
| 20260507150001 | 47 | 42 | 0.0 | 3.0 | 0.00 | 0.00 | 0.00 | 37 | 938.4 |
| 20260507144557 | 46 | 50 | 0.0 | 2.0 | 0.00 | 0.00 | 0.00 | 40 | 938.5 |
| 20260507143054 | 44 | 55 | 0.0 | 0.0 | 0.00 | 0.00 | 0.00 | 41 | 938.5 |
| 20260507141549 | 41 | 55 | 0.0 | 1.0 | 0.00 | 0.00 | 0.00 | 44 | 938.5 |
| 20260507140049 | 40 | 55 | 0.0 | 0.0 | 0.00 | 0.00 | 0.00 | 47 | 938.6 |
| 20260507134543 | 37 | 55 | 0.0 | 2.0 | 0.00 | 0.00 | 0.00 | 51 | 938.5 |
| 20260507133041 | 34 | 60 | 0.0 | 2.0 | 0.00 | 0.00 | 0.00 | 58 | 938.5 |
| 20260507131552 | 29 | 85 | 0.0 | 0.0 | 0.00 | 0.00 | 0.00 | 66 | 938.6 |
| 20260507130037 | 27 | 85 | 0.0 | 1.0 | 0.00 | 0.00 | 0.00 | 68 | 938.6 |
| 20260507124535 | 25 | 85 | 0.0 | 0.0 | 0.00 | 0.00 | 0.00 | 72 | 938.4 |
| 20260507123033 | 23 | 85 | 0.0 | 0.0 | 0.00 | 0.00 | 0.00 | 75 | 938.2 |
| 20260507121533 | 21 | 85 | 0.0 | 0.0 | 0.00 | 0.00 | 0.00 | 75 | 938.2 |
| 20260507120039 | 21 | 85 | 0.0 | 0.0 | 0.00 | 0.00 | 0.00 | 72 | 938.2 |
| 20260507114532 | 21 | 85 | 0.0 | 0.0 | 0.00 | 0.00 | 0.00 | 72 | 938.1 |
| 20260507113030 | 21 | 85 | 0.0 | 0.0 | 0.00 | 0.00 | 0.00 | 71 | 938.1 |
| 20260507111528 | 21 | 85 | 0.0 | 0.0 | 0.00 | 0.00 | 0.00 | 71 | 938.2 |
| 20260507110029 | 21 | 85 | 0.0 | 0.0 | 0.00 | 0.00 | 0.00 | 71 | 938.2 |
| 20260507104526 | 21 | 85 | 0.0 | 0.0 | 0.00 | 0.00 | 0.00 | 69 | 938.2 |
| 20260507103026 | 22 | 85 | 0.0 | 0.0 | 0.00 | 0.00 | 0.00 | 69 | 938.1 |
| 20260507101524 | 22 | 85 | 0.0 | 0.0 | 0.00 | 0.00 | 0.00 | 68 | 938.1 |
| 20260507100029 | 23 | 85 | 0.0 | 0.0 | 0.00 | 0.00 | 0.00 | 66 | 938.2 |
| 20260507094518 | 24 | 85 | 0.0 | 0.0 | 0.00 | 0.00 | 0.00 | 63 | 938.2 |
| 20260507093014 | 25 | 85 | 0.0 | 0.0 | 0.00 | 0.00 | 0.00 | 60 | 938.1 |
| 20260507091514 | 27 | 85 | 0.0 | 0.0 | 0.00 | 0.00 | 0.00 | 57 | 938.1 |
| 20260507090010 | 28 | 85 | 0.0 | 0.0 | 0.00 | 0.00 | 0.00 | 55 | 938.1 |
| 20260507084512 | 28 | 85 | 0.0 | 0.0 | 0.00 | 0.00 | 0.00 | 56 | 938.1 |
| 20260507083007 | 28 | 85 | 0.0 | 0.0 | 0.00 | 0.00 | 0.00 | 56 | 938.1 |
| 20260507081508 | 27 | 85 | 0.0 | 0.0 | 0.00 | 0.00 | 0.00 | 56 | 938.1 |
| 20260507080007 | 28 | 85 | 0.0 | 0.0 | 0.00 | 0.00 | 0.00 | 55 | 938.1 |
| 20260507074610 | 29 | 85 | 0.0 | 0.0 | 0.00 | 0.00 | 0.00 | 52 | 938.0 |
| 20260507073057 | 30 | 85 | 0.0 | 1.0 | 0.00 | 0.00 | 0.00 | 50 | 937.9 |
| 20260507071556 | 31 | 85 | 0.0 | 1.0 | 0.00 | 0.00 | 0.00 | 49 | 937.9 |
| 20260507070052 | 31 | 85 | 0.0 | 2.0 | 0.00 | 0.00 | 0.00 | 48 | 937.8 |
| 20260507064549 | 32 | 85 | 0.0 | 1.0 | 0.00 | 0.00 | 0.00 | 47 | 937.8 |
| 20260507063045 | 33 | 85 | 0.0 | 1.0 | 0.00 | 0.00 | 0.00 | 45 | 937.8 |
| 20260507061541 | 35 | 84 | 0.0 | 1.0 | 0.00 | 0.00 | 0.00 | 42 | 937.6 |
| 20260507060038 | 38 | 81 | 0.0 | 2.0 | 0.00 | 0.00 | 0.00 | 39 | 937.6 |
| 20260507054542 | 37 | 80 | 1.0 | 2.0 | 0.00 | 0.00 | 0.00 | 39 | 937.6 |
| 20260507053035 | 36 | 85 | 0.0 | 2.0 | 0.00 | 0.00 | 0.00 | 39 | 937.6 |
| 20260507051535 | 37 | 85 | 0.0 | 2.0 | 0.00 | 0.00 | 0.00 | 37 | 937.6 |
| 20260507050034 | 38 | 81 | 1.0 | 3.0 | 0.00 | 0.00 | 0.00 | 35 | 937.6 |
| 20260507044535 | 39 | 79 | 1.0 | 3.0 | 0.00 | 0.00 | 0.00 | 35 | 937.6 |
| 20260507043032 | 39 | 75 | 1.0 | 3.0 | 0.00 | 0.00 | 0.00 | 36 | 937.7 |
| 20260507041531 | 38 | 80 | 1.0 | 2.0 | 0.00 | 0.00 | 0.00 | 37 | 937.8 |
| 20260507040031 | 39 | 80 | 1.0 | 3.0 | 0.00 | 0.00 | 0.00 | 35 | 937.8 |
| 20260507034530 | 41 | 75 | 1.0 | 3.0 | 0.00 | 0.00 | 0.00 | 34 | 937.8 |
| 20260507033029 | 41 | 67 | 1.0 | 4.0 | 0.00 | 0.00 | 0.00 | 33 | 937.9 |
| 20260507031529 | 41 | 300 | 0.0 | 2.0 | 0.00 | 0.00 | 0.00 | 34 | 937.9 |
| 20260507030029 | 42 | 306 | 0.0 | 2.0 | 0.00 | 0.00 | 0.00 | 34 | 937.8 |
| 20260507024532 | 45 | 304 | 0.0 | 3.0 | 0.00 | 0.00 | 0.00 | 32 | 937.8 |
| 20260507023028 | 47 | 303 | 0.0 | 3.0 | 0.00 | 0.00 | 0.00 | 32 | 937.8 |
| 20260507021526 | 49 | 303 | 1.0 | 4.0 | 0.00 | 0.00 | 0.00 | 27 | 937.7 |
| 20260507020026 | 51 | 303 | 1.0 | 3.0 | 0.00 | 0.00 | 0.00 | 23 | 937.7 |
| 20260507014536 | 54 | 303 | 1.0 | 4.0 | 0.00 | 0.00 | 0.00 | 21 | 937.7 |
| 20260507013025 | 55 | 303 | 2.0 | 7.0 | 0.00 | 0.00 | 0.00 | 20 | 937.7 |
| 20260507011525 | 56 | 292 | 1.0 | 5.0 | 0.00 | 0.00 | 0.00 | 21 | 937.7 |
| 20260507010023 | 56 | 292 | 1.0 | 10.0 | 0.00 | 0.00 | 0.00 | 20 | 937.7 |
| 20260507004523 | 56 | 283 | 3.0 | 10.0 | 0.00 | 0.00 | 0.00 | 21 | 937.8 |
| 20260507003021 | 56 | 283 | 4.0 | 12.0 | 0.00 | 0.00 | 0.00 | 20 | 937.9 |
| 20260507001526 | 56 | 277 | 5.0 | 11.0 | 0.00 | 0.00 | 0.00 | 21 | 938.0 |
| 20260507000031 | 56 | 288 | 8.0 | 13.0 | 0.00 | 0.00 | 0.00 | 20 | 938.0 |
| 20260506234518 | 56 | 266 | 5.0 | 13.0 | 0.00 | 0.00 | 0.00 | 20 | 938.2 |
| 20260506233017 | 56 | 290 | 3.0 | 13.0 | 0.00 | 0.00 | 0.00 | 20 | 938.2 |
| 20260506231515 | 56 | 273 | 6.0 | 11.0 | 0.00 | 0.00 | 0.00 | 20 | 938.3 |
| 20260506230014 | 56 | 276 | 5.0 | 15.0 | 0.00 | 0.00 | 0.00 | 20 | 938.4 |
| 20260506224512 | 56 | 281 | 4.0 | 10.0 | 0.00 | 0.00 | 0.00 | 19 | 938.5 |